Regional Weather Roundup
Issued by NWS

Home | Current Version | Previous Version | Graphics & Text | Print | Product List | Glossary Off
Versions: 1 2 3 4 5 6 7 8 9 10 11 12 13 14 15 16 17 18 19 20 21 22 23 24 25 26 27 28 29 30 31 32 33 34 35 36 37 38 39 40 41 42 43 44 45 46 47 48 49 50

000
ASUS43 KLSX 232059
RWRMO

WEATHER SUMMARY FOR MISSOURI
NATIONAL WEATHER SERVICE SPRINGFIELD MO
400 PM CDT TUE MAY 23 2017

NOTE: "FAIR" INDICATES FEW OR NO CLOUDS BELOW 12,000 FEET WITH NO
       SIGNIFICANT WEATHER AND/OR OBSTRUCTIONS TO VISIBILITY.
       CURRENT SKY AND/OR WEATHER CONDITIONS ARE NOT AVAILABLE FOR
       CHILLICOTHE AND FARMINGTON.

MOZ001>031-035>038-043-044-053-054-232200-
...NORTHERN AND WESTERN MISSOURI...

CITY           SKY/WX    TMP DP  RH WIND       PRES   REMARKS
KANSAS CTY INT CLOUDY    62  48  60 NW8       29.81F
KANSAS C DTWN  LGT RAIN  64  46  52 N7        29.80F
ST JOSEPH      CLOUDY    63  47  55 N16       29.81F
CHILLICOTHE      N/A     63  46  54 VRB5      29.80S
KIRKSVILLE     CLOUDY    63  49  60 W6        29.76F

$$
MOZ066>068-077>081-088>096-101>105-232200-
...SOUTHWEST MISSOURI...

CITY           SKY/WX    TMP DP  RH WIND       PRES   REMARKS
SPRINGFIELD    CLOUDY    62  54  74 NW8       29.80S
BRANSON        LGT RAIN  63  55  77 NW14      29.80R FOG

$$
MOZ032>034-039>042-045>050-055>058-069>072-232200-
...CENTRAL MISSOURI...

CITY           SKY/WX    TMP DP  RH WIND       PRES   REMARKS
COLUMBIA       PTSUNNY   67  52  58 NW13      29.76F
JEFFERSON CITY CLOUDY    69  50  50 NW13G23   29.76S
ROLLA          CLOUDY    65  55  70 N14G21    29.75F
SEDALIA        CLOUDY    68  51  54 NW12      29.79F
WARRENSBURG    PTSUNNY   66  46  48 W12G18    29.79F
OSAGE BEACH    CLOUDY    63  55  75 NW5       29.78F

$$
MOZ051-052-059>065-232200-
...EAST CENTRAL MISSOURI...

CITY           SKY/WX    TMP DP  RH WIND       PRES   REMARKS
ST LOUIS INTL  CLOUDY    67  58  72 NW8       29.72F
SPIRIT OF STL  CLOUDY    67  57  70 NW8       29.71F
ST CHARLES     CLOUDY    66  58  75 W9        29.71F

$$
MOZ072>076-082>087-097>100-106>115-232200-
...SOUTH CENTRAL AND SOUTHEAST MISSOURI...

CITY           SKY/WX    TMP DP  RH WIND       PRES   REMARKS
CAPE GIRARDEAU CLOUDY    73  49  42 VRB5      29.69F
FARMINGTON     PTSUNNY   68  57  68 NW8       29.72F
POPLAR BLUFF   PTSUNNY   71  57  61 VRB3      29.69F
WEST PLAINS    PTSUNNY   67  55  65 NW13      29.75S

$$




USA.gov is the U.S. government's official web portal to all federal, state and local government web resources and services.